Date,TemperatureHighF,TemperatureAvgF,TemperatureLowF,DewpointHighF,DewpointAvgF,DewpointLowF,HumidityHigh,HumidityAvg,HumidityLow,PressureMaxIn,PressureMinIn,WindSpeedMaxMPH,WindSpeedAvgMPH,GustSpeedMaxMPH,PrecipitationSumIn
2013-3-1,40.7,37.7,34.7,31.0,28.1,24.0,79,69,61,29.88,29.70,11,3,14,0.00
2013-3-2,36.4,33.0,29.2,24.0,21.9,20.0,73,64,54,29.89,29.80,8,3,16,0.00
2013-3-3,33.7,30.2,26.7,24.0,20.0,17.0,82,66,57,29.89,29.80,11,4,19,0.00
2013-3-4,35.5,29.8,25.5,21.0,18.2,15.0,70,62,53,30.05,29.90,17,5,21,0.00
2013-3-5,45.0,33.8,25.4,28.0,23.4,18.0,77,66,50,30.10,29.93,7,2,14,0.00
2013-3-6,38.5,35.8,32.8,35.0,31.2,27.0,93,83,68,30.02,29.78,14,5,25,0.48
2013-3-7,45.3,37.9,33.7,28.0,25.3,22.0,75,61,46,30.16,30.03,11,3,19,0.00
2013-3-8,44.9,37.3,30.8,28.0,24.0,21.0,69,59,50,30.32,30.14,15,4,33,0.00
2013-3-9,57.8,42.7,30.6,27.0,22.9,21.0,68,48,26,30.37,30.28,7,2,12,0.00
2013-3-10,59.9,46.2,33.0,33.0,25.1,18.0,76,47,20,30.35,30.25,5,1,13,0.00
2013-3-11,56.0,46.2,37.0,48.0,41.2,34.0,94,83,61,30.27,29.99,7,1,13,0.00
2013-3-12,55.1,48.9,39.8,54.0,44.4,30.0,98,85,66,29.97,29.75,12,3,17,1.10
2013-3-13,44.6,38.2,30.1,34.0,25.9,16.0,86,62,40,30.03,29.90,11,4,16,0.01
2013-3-14,38.5,33.1,29.6,18.0,15.6,13.0,62,49,39,30.09,30.00,18,6,24,0.00
2013-3-15,52.2,39.9,24.7,32.0,22.9,11.0,65,51,39,30.09,29.78,11,3,19,0.00
2013-3-16,43.3,35.5,31.5,33.0,29.5,24.0,95,80,59,29.97,29.76,10,2,11,0.10
2013-3-17,36.9,33.2,31.3,31.0,25.2,20.0,95,74,52,30.31,29.96,9,1,11,0.00
2013-3-18,35.0,31.7,29.6,31.0,23.3,15.0,95,73,54,30.38,29.94,9,2,13,0.14
2013-3-19,52.7,38.7,32.6,37.0,29.2,18.0,98,74,30,29.93,29.74,15,3,26,0.40
2013-3-20,46.1,37.6,29.2,22.0,18.4,15.0,61,47,30,29.97,29.80,11,3,23,0.00
2013-3-21,35.5,30.5,27.0,23.0,14.6,9.0,69,52,37,29.87,29.75,11,3,21,0.00
2013-3-22,39.1,31.8,24.9,25.0,19.1,13.0,79,60,45,30.01,29.85,10,3,17,0.00
2013-3-23,44.1,35.5,27.8,23.0,20.8,20.0,73,56,41,30.02,29.95,14,3,18,0.00
2013-3-24,44.9,36.1,26.5,25.0,21.5,19.0,76,57,41,30.02,29.70,7,1,10,0.00
2013-3-25,37.6,33.4,30.9,32.0,30.0,25.0,95,88,62,29.70,29.54,8,1,13,0.39
2013-3-26,47.6,40.7,32.5,33.0,30.6,25.0,95,69,41,29.97,29.70,6,2,11,0.05
2013-3-27,46.7,40.6,36.3,30.0,27.7,26.0,74,61,46,30.09,29.97,12,4,22,0.00
2013-3-28,46.0,40.4,34.1,33.0,27.7,26.0,77,61,45,30.22,30.07,10,3,14,0.00
2013-3-29,51.6,43.7,38.0,32.0,28.9,26.0,70,57,38,30.24,30.14,10,2,16,0.00
2013-3-30,57.9,44.4,33.7,31.0,26.7,23.0,78,53,28,30.24,30.13,8,1,13,0.00
2013-3-31,52.6,44.8,37.8,46.0,36.7,23.0,97,75,51,30.14,29.75,6,1,14,0.02